STARLINK-35410 (66024 NORAD) Tracking and Keplerian Element Data

This shows tracking and keplerian element data for the satellite.

Feedback or suggestion? Click here.




ElementValue
Catalog66024
NameSTARLINK-35410
Epoch Orbit1118
Epoch Day353.63438156
Epoch Year2025
RAAN115.408
Inclination53.1591
Eccentricity0.0001087
Argument of Perigee88.3241
Mean Anonmoly271.7884
Mean Motion15.30205649
Decay Rate0.00019807
L11 66024U 25232V 25353.63438156 .00019807 00000+0 67898-3 0 9991
L22 66024 53.1591 115.4080 0001087 88.3241 271.7884 15.30205649 11188



Live tracking and technical data element details for STARLINK-35410 (NORAD 66024). STARLINK-35410 can be tracked NOW for your location showing map with azimuth and elevation plus other details from your city location.







IsCatalogInMostPopularTable: catalog: 66024, numindb: 5
Update: records affected: 1



GetName: 66024 STARLINK-35410

Hit Count: updated at: Sun, 08 Feb 2026 08:52:49 GMT